[[{"header":{"parameterUnit":"m.s-1","parameterCategory":1,"la1":30.2991,"la2":30.254,"lo1":-89.0895,"lo2":-89.0444,"dy":0.0017,"dx":0.0017,"nx":28,"ny":28,"refTime":"2025-09-02T03:00:00:Z","depth":0,"parameterNumber":2,"parameterNumberName":"U-component_of_WINDS"},"data":[0,0,0,0,0,0,0,0,0,0,0,0,0,0,0,0,0,0,0,0,0,0,0,0,0,0,0,0,0,0,0,0,0,0,0,0,0,0,0,0,0,0,0,0,0,0,0,0,0,0,0,0,0,0,0,0,0,0,-4.1723,-4.1722,0,-4.1698,-4.1698,-4.1697,-4.1547,-4.1543,-4.1539,-4.1536,-4.1511,-4.1514,-4.1517,0,0,0,0,0,0,0,0,0,0,0,0,0,-4.1642,-4.1644,-4.1723,-4.1722,-4.1722,-4.1698,-4.1698,-4.1697,-4.1547,-4.1543,-4.1538,-4.1534,-4.151,-4.1514,-4.1517,0,0,0,0,0,0,0,0,0,0,0,0,0,-4.1653,-4.1645,-4.1723,-4.1644,-4.1637,-4.1698,-4.1698,-4.1697,-4.1548,-4.1543,-4.1537,-4.1532,-4.1509,-4.1513,-4.1517,-4.1652,0,0,-4.153,-4.1532,0,0,0,0,0,0,0,0,-4.1653,-4.1656,-4.1656,-4.165,-4.1642,-4.162,-4.166,-4.1682,-4.1549,-4.1582,-4.1536,-4.1529,-4.1552,-4.1552,-4.1559,-4.1651,-4.165,-4.153,-4.1533,-4.1535,-4.1536,0,0,0,0,0,0,0,-4.1652,-4.1656,-4.1713,-4.1656,-4.1648,-4.1611,-4.1606,-4.1663,-4.1598,-4.1579,-4.1568,-4.1567,-4.1547,-4.1556,-4.1558,-4.1649,-4.153,-4.1534,-4.1536,-4.1538,-4.185,-4.1855,0,0,0,0,0,0,-4.1662,-4.1657,-4.1714,-4.1712,-4.1634,-4.1617,-4.1612,-4.1632,-4.1597,-4.1586,-4.1571,-4.156,-4.1552,-4.1553,-4.1556,-4.171,-4.1535,-4.1538,-4.1541,-4.1844,-4.1851,-4.1857,0,0,0,0,0,0,-4.1661,-4.1669,-4.1715,-4.1681,-4.1684,-4.1624,-4.1648,-4.1635,-4.1643,-4.1591,-4.1579,-4.1593,-4.1547,-4.1551,-4.1629,-4.1707,-4.154,-4.1544,-4.1837,-4.1846,-4.1854,-4.2021,0,0,0,0,0,0,-4.1659,-4.1669,-4.1719,-4.1684,-4.1687,-4.1788,-4.1653,-4.1638,-4.1651,-4.1635,-4.1608,-4.1598,-4.1543,-4.1624,-4.1633,-4.171,-4.1547,-4.183,-4.1841,-4.1851,-4.2008,-4.2034,-4.2056,0,0,0,0,0,-4.1657,-4.1767,-4.1722,-4.173,-4.1748,-4.1793,-4.1794,-4.1729,-4.1658,-4.1708,-4.1674,-4.1599,-4.1698,-4.1633,-4.1642,-4.1722,-4.1824,-4.1838,-4.1851,-4.1997,-4.2029,-4.2056,0,0,0,0,0,0,-4.1813,-4.1761,-4.1711,-4.1813,-4.1809,-4.1767,-4.1828,-4.1765,-4.178,-4.1765,-4.1684,-4.1679,-4.177,-4.1754,-4.1682,-4.185,-4.1748,-4.1764,-4.1856,-4.1886,-4.191,-4.1911,-4.1551,0,0,0,0,0,-4.186,-4.19,-4.1852,-4.1947,-4.1948,-4.1889,-4.1906,-4.1856,-4.1848,-4.1845,-4.1817,-4.1813,-4.1843,-4.1864,-4.1889,-4.2006,-4.1997,-4.2065,-4.209,-4.211,-4.2123,-4.2183,-4.2212,-4.19,-4.19,-4.19,0,0,-4.1956,-4.1932,-4.1963,-4.1978,-4.1969,-4.2012,-4.1888,-4.1939,-4.1971,-4.1853,-4.1924,-4.1905,-4.1895,-4.1993,-4.2035,-4.1982,-4.2208,-4.2126,-4.2143,-4.2145,-4.22,-4.2229,-4.2256,-4.1909,-4.1907,-4.1906,0,0,-4.2153,-4.214,-4.2216,-4.221,-4.2197,-4.2158,-4.2177,-4.2146,-4.2128,-4.2199,-4.2111,-4.2148,-4.2202,-4.2197,-4.2203,-4.24,-4.2331,-4.2411,-4.2537,-4.2596,-4.2621,-4.2642,-4.2711,-4.2737,-4.2426,-4.2426,-4.2426,0,-4.2273,-4.2335,-4.2264,-4.2321,-4.233,-4.2227,-4.2304,-4.2301,-4.2298,-4.2307,-4.2249,-4.2314,-4.23,-4.2395,-4.2443,-4.2452,-4.247,-4.2412,-4.2623,-4.2644,-4.2662,-4.2727,-4.2754,-4.2436,-4.2434,-4.2433,-4.2433,0,-4.2483,-4.2528,-4.2592,-4.2591,-4.2607,-4.2675,-4.2615,-4.264,-4.259,-4.2557,-4.2631,-4.2611,-4.2629,-4.2649,-4.2601,-4.2738,-4.2706,-4.2637,-4.2533,-4.2703,-4.2762,-4.2787,-4.2449,-4.2446,-4.2443,-4.2441,0,0,-4.2775,-4.2735,-4.276,-4.2758,-4.2737,-4.277,-4.2834,-4.2851,-4.2875,-4.2877,-4.2927,-4.2976,-4.2912,-4.2918,-4.2869,-4.2921,-4.3078,-4.2845,-4.2844,-4.2887,-4.3227,-4.3277,-4.3307,-4.3033,-4.3038,-4.3041,-4.3227,0,-4.2962,-4.3066,-4.3005,-4.3118,-4.3158,-4.3061,-4.3116,-4.311,-4.3082,-4.3112,-4.308,-4.3115,-4.3029,-4.3032,-4.308,-4.3049,-4.3144,-4.3035,-4.3078,-4.308,-4.3081,-4.3338,-4.3391,-4.3567,-4.325,-4.3254,-4.3257,0,-4.3193,-4.3204,-4.3322,-4.3293,-4.3308,-4.3358,-4.337,-4.34,-4.3392,-4.3367,-4.3376,-4.3313,-4.3373,-4.3273,-4.3355,-4.3282,-4.3297,-4.3284,-4.3289,-4.3289,-4.3177,-4.3342,-4.3622,-4.3647,-4.3293,-4.329,-4.3287,0,-4.3391,-4.3437,-4.3512,-4.3514,-4.3484,-4.3521,-4.3511,-4.3497,-4.3512,-4.3523,-4.3531,-4.355,-4.356,-4.3576,-4.3521,-4.3453,-4.361,-4.3505,-4.359,-4.3592,-4.3625,-4.3623,-4.3909,-4.364,-4.3639,-4.3639,-4.3638,0,-4.3604,-4.3679,-4.36,-4.3647,-4.3728,-4.3659,-4.3741,-4.3721,-4.371,-4.375,-4.3669,-4.3709,-4.3635,-4.3668,-4.3626,-4.37,-4.3705,-4.3687,-4.3674,-4.3693,-4.3695,-4.3699,-4.3684,-4.3646,-4.3644,-4.3643,-4.3642,0,-4.3838,-4.3789,-4.3864,-4.383,-4.3823,-4.3885,-4.3855,-4.3897,-4.3864,-4.3917,-4.3925,-4.3874,-4.3909,-4.3856,-4.3885,-4.3857,-4.3958,-4.3928,-4.396,-4.3951,-4.4038,-4.403,-4.4334,-4.437,-4.4081,-4.4084,-4.4086,0,-4.3976,-4.4031,-4.4003,-4.4024,-4.4018,-4.4054,-4.4069,-4.4004,-4.4023,-4.4018,-4.406,-4.4088,-4.4107,-4.4167,-4.4132,-4.4154,-4.4123,-4.4228,-4.4125,-4.4142,-4.4122,-4.4118,-4.4123,-4.4248,-4.4252,-4.4255,-4.4257,0,-4.4225,-4.4198,-4.4222,-4.4239,-4.4259,-4.4269,-4.4273,-4.4296,-4.4227,-4.4253,-4.4287,-4.4302,-4.4332,-4.436,-4.4374,-4.4363,-4.4299,-4.429,-4.4311,-4.4328,-4.4344,-4.4335,-4.4015,-4.4283,-4.428,-4.4278,-4.4277,-4.4276,-4.4413,-4.4458,-4.4445,-4.4475,-4.4471,-4.4477,-4.4515,-4.4487,-4.4514,-4.4533,-4.4493,-4.4538,-4.4529,-4.454,-4.4537,-4.4571,-4.4524,-4.4555,-4.4562,-4.457,-4.4583,-4.4342,-4.4573,-4.4573,-4.4572,-4.4571,-4.4571,0,-4.4656,-4.4644,-4.4672,-4.468,-4.4705,-4.4643,-4.4645,-4.4669,-4.4709,-4.4706,-4.4726,-4.4766,-4.4794,-4.4763,-4.4785,-4.4818,-4.4789,-4.4826,-4.4821,-4.4819,-4.4624,-4.4602,-4.4848,-4.4848,-4.4848,-4.4848,-4.4848,-4.4848,-4.4785,-4.4857,-4.4829,-4.4899,-4.4886,-4.4928,-4.4934,-4.4939,-4.4936,-4.4984,-4.5007,-4.4987,-4.4972,-4.4993,-4.5016,-4.5006,-4.5017,-4.5064,-4.5044,-4.4861,-4.4833,-4.4807,-4.4787,-4.5068,-4.5068,-4.5236,-4.5238,-4.5239]},{"header":{"parameterUnit":"m.s-1","parameterCategory":1,"la1":30.2991,"la2":30.254,"lo1":-89.0895,"lo2":-89.0444,"dy":0.0017,"dx":0.0017,"nx":28,"ny":28,"refTime":"2025-09-02T03:00:00:Z","depth":0,"parameterNumber":3,"parameterNumberName":"V-component_of_WINDS"},"data":[0,0,0,0,0,0,0,0,0,0,0,0,0,0,0,0,0,0,0,0,0,0,0,0,0,0,0,0,0,0,0,0,0,0,0,0,0,0,0,0,0,0,0,0,0,0,0,0,0,0,0,0,0,0,0,0,0,0,2.1438,2.1438,0,2.142,2.142,2.142,2.1404,2.1403,2.1403,2.1403,2.1382,2.1381,2.1381,0,0,0,0,0,0,0,0,0,0,0,0,0,2.1457,2.1457,2.1438,2.1438,2.1438,2.142,2.142,2.142,2.1404,2.1403,2.1403,2.1403,2.1382,2.1381,2.1381,0,0,0,0,0,0,0,0,0,0,0,0,0,2.1445,2.1456,2.1438,2.1428,2.1427,2.142,2.142,2.142,2.1404,2.1403,2.1403,2.1403,2.1382,2.1382,2.1381,2.1383,0,0,2.1379,2.1379,0,0,0,0,0,0,0,0,2.1445,2.1444,2.1429,2.1428,2.1427,2.1414,2.1419,2.1407,2.1404,2.1412,2.1403,2.1403,2.1393,2.1391,2.1388,2.1382,2.1381,2.1379,2.1379,2.1378,2.1378,0,0,0,0,0,0,0,2.1446,2.1445,2.1431,2.1429,2.1428,2.1423,2.1421,2.1416,2.1404,2.1411,2.141,2.1408,2.1392,2.1389,2.1388,2.1381,2.1379,2.1379,2.1378,2.1378,2.1375,2.1375,0,0,0,0,0,0,2.1449,2.1446,2.1432,2.143,2.1436,2.1423,2.1421,2.1418,2.1404,2.1402,2.1409,2.1408,2.139,2.1388,2.1387,2.1388,2.1378,2.1378,2.1378,2.1375,2.1375,2.1375,0,0,0,0,0,0,2.145,2.1448,2.1432,2.1438,2.1435,2.1423,2.142,2.1418,2.1415,2.1402,2.14,2.1408,2.139,2.1388,2.1384,2.1387,2.1378,2.1377,2.1374,2.1375,2.1375,2.139,0,0,0,0,0,0,2.145,2.1448,2.1449,2.1438,2.1435,2.1431,2.1421,2.1418,2.1414,2.1413,2.1401,2.1398,2.1389,2.1385,2.1384,2.1386,2.1377,2.1374,2.1375,2.1375,2.139,2.1391,2.1393,0,0,0,0,0,2.1451,2.1454,2.1449,2.1448,2.1436,2.1431,2.1429,2.1419,2.1415,2.1415,2.1407,2.1399,2.1387,2.1385,2.1383,2.1385,2.1374,2.1374,2.1375,2.1389,2.1391,2.1393,0,0,0,0,0,0,2.1465,2.1452,2.1447,2.1446,2.144,2.1428,2.1428,2.1422,2.1416,2.1415,2.1402,2.1399,2.1397,2.1391,2.1389,2.1386,2.1379,2.138,2.1391,2.1392,2.1394,2.1395,2.1376,0,0,0,0,0,2.1468,2.1465,2.1454,2.1454,2.1452,2.1441,2.1438,2.1431,2.1424,2.142,2.1412,2.1404,2.1399,2.1395,2.139,2.1389,2.1386,2.139,2.1391,2.1393,2.1393,2.1392,2.1393,2.1377,2.1377,2.1377,0,0,2.1474,2.1467,2.1465,2.1457,2.1451,2.1448,2.1438,2.1435,2.1433,2.142,2.1416,2.141,2.14,2.1398,2.1397,2.1393,2.1397,2.1393,2.1395,2.1394,2.1393,2.1394,2.1396,2.1378,2.1378,2.1378,0,0,2.1483,2.1478,2.1478,2.1472,2.1464,2.1457,2.1457,2.1447,2.1442,2.1439,2.1429,2.1425,2.1416,2.141,2.1405,2.1414,2.1406,2.1412,2.142,2.1419,2.1421,2.1422,2.1424,2.1426,2.1412,2.1412,2.1413,0,2.1491,2.1487,2.1478,2.1476,2.1473,2.1462,2.1461,2.1456,2.1446,2.1444,2.144,2.1429,2.1421,2.1418,2.142,2.1417,2.1416,2.1413,2.1421,2.1422,2.1423,2.1426,2.1427,2.1413,2.1413,2.1413,2.1413,0,2.1498,2.1495,2.1496,2.1488,2.1484,2.1483,2.1473,2.1471,2.1464,2.1458,2.1454,2.1445,2.1438,2.1437,2.143,2.1432,2.143,2.1424,2.1416,2.1426,2.1428,2.1429,2.1414,2.1414,2.1414,2.1414,0,0,2.1515,2.1502,2.1502,2.1499,2.1489,2.1487,2.1485,2.1478,2.1476,2.147,2.1468,2.1461,2.1456,2.1451,2.1443,2.1443,2.145,2.1437,2.1436,2.1439,2.1451,2.1456,2.1457,2.1445,2.1445,2.1445,2.1452,0,2.1522,2.1519,2.1511,2.151,2.1507,2.1498,2.1496,2.149,2.1483,2.148,2.1472,2.1468,2.1461,2.1458,2.1457,2.1449,2.1452,2.1449,2.1442,2.1442,2.1444,2.1458,2.1463,2.147,2.1453,2.1453,2.1453,0,2.1531,2.1526,2.1525,2.1516,2.1515,2.1513,2.1507,2.1504,2.1496,2.1492,2.1487,2.1479,2.1476,2.147,2.1466,2.1464,2.146,2.1456,2.1456,2.1455,2.1448,2.1457,2.1472,2.1473,2.1454,2.1454,2.1454,0,2.1543,2.1536,2.1535,2.1532,2.1521,2.1521,2.1516,2.1509,2.1506,2.15,2.1498,2.1491,2.1488,2.1483,2.1474,2.147,2.147,2.1463,2.1466,2.1466,2.1465,2.1466,2.148,2.1464,2.1464,2.1464,2.1464,0,2.1552,2.1552,2.154,2.1539,2.1539,2.1529,2.1529,2.1523,2.1517,2.1514,2.1505,2.1503,2.1491,2.1487,2.148,2.1477,2.1475,2.1471,2.1469,2.1472,2.1472,2.1469,2.1468,2.1465,2.1465,2.1465,2.1464,0,2.1565,2.1557,2.1555,2.1546,2.1544,2.1544,2.1535,2.1534,2.1528,2.1524,2.1523,2.1513,2.1508,2.1498,2.149,2.1485,2.1484,2.1481,2.1487,2.1486,2.1489,2.1489,2.1501,2.1502,2.1487,2.1487,2.1487,0,2.1571,2.1571,2.1562,2.156,2.1556,2.1553,2.155,2.1541,2.1538,2.153,2.153,2.1524,2.1519,2.1512,2.1503,2.1497,2.1493,2.1498,2.1492,2.1495,2.1493,2.1493,2.1493,2.1499,2.1499,2.1499,2.15,0,2.1583,2.1579,2.1576,2.1571,2.1568,2.1564,2.1559,2.1558,2.1547,2.1544,2.154,2.1536,2.1529,2.1523,2.1516,2.151,2.1503,2.1502,2.1502,2.1504,2.1508,2.1506,2.149,2.1501,2.1501,2.1501,2.1501,2.1501,2.1593,2.1592,2.1586,2.1582,2.1578,2.1573,2.1572,2.1566,2.1562,2.1556,2.155,2.1546,2.1539,2.1529,2.1524,2.152,2.1516,2.1517,2.1517,2.1517,2.1518,2.1509,2.1518,2.1518,2.1518,2.1518,2.1518,0,2.1604,2.16,2.1596,2.159,2.1587,2.1582,2.1576,2.1574,2.1571,2.1565,2.1561,2.1555,2.155,2.1541,2.1535,2.1534,2.153,2.1533,2.1532,2.1531,2.1521,2.1522,2.1536,2.1536,2.1536,2.1536,2.1536,2.1536,2.1609,2.1608,2.1604,2.16,2.1596,2.1592,2.1589,2.1585,2.1581,2.1575,2.1571,2.1566,2.1559,2.1553,2.1547,2.1545,2.1543,2.1546,2.1543,2.1533,2.1532,2.153,2.1531,2.1546,2.1546,2.1553,2.1553,2.1553]}]]